DW8199 Weather Reports


Display with metric or nautical units.
time (UTC)temp
F
wind
direction
speed
MPH
gust
MPH
rain 1hr
in
rain 24hr
in
rain mn
in
humidity
%
barometer
mb
20260901235515 78 0.0 0.0 0.00 0.00 0.00 85 1016.6
20260901234535 78 0.0 0.0 0.00 0.00 0.00 85 1016.7
20260901233516 79 0.0 0.0 0.00 0.00 0.00 85 1016.9
20260901232516 79 0.0 0.0 0.00 0.00 0.00 84 1017.0
20260901231515 80 0.0 0.0 0.00 0.00 0.00 83 1017.2
20260901230515 80 0.0 1.0 0.00 0.00 0.00 83 1017.2
20260901225515 80 113 0.0 1.0 0.00 0.00 0.00 82 1017.3
20260901224515 80 124 0.0 2.0 0.00 0.00 0.00 82 1017.4
20260901223515 80 88 0.0 1.0 0.00 0.00 0.00 82 1017.4
20260901222516 80 89 0.0 1.0 0.00 0.00 0.00 82 1017.5
20260901221515 81 106 0.0 1.0 0.00 0.00 0.00 81 1017.6
20260901220515 82 0.0 1.0 0.00 0.00 0.00 78 1017.7
20260901215515 84 295 0.0 2.0 0.00 0.00 0.00 75 1017.8
20260901214516 84 280 0.0 4.0 0.00 0.00 0.00 72 1017.7
20260901213535 85 248 1.0 3.0 0.00 0.00 0.00 71 1017.8
20260901212515 85 218 1.0 4.0 0.00 0.00 0.00 69 1017.7
20260901211516 85 275 2.0 5.0 0.00 0.00 0.00 69 1017.7
20260901210017 84 297 1.0 3.0 0.00 0.00 0.00 70 1017.7
20260901205036 85 244 1.0 4.0 0.00 0.00 0.00 70 1017.6
20260901204016 85 227 2.0 4.0 0.00 0.00 0.00 71 1017.6
20260901203017 84 288 1.0 3.0 0.00 0.00 0.00 71 1017.6
20260901202016 85 300 1.0 5.0 0.00 0.00 0.00 70 1017.5
20260901201016 85 261 1.0 4.0 0.00 0.00 0.00 70 1017.4
20260901200016 86 231 2.0 6.0 0.00 0.00 0.00 70 1017.3
20260901195016 85 204 3.0 5.0 0.00 0.00 0.00 71 1017.4
20260901194016 84 207 2.0 5.0 0.00 0.00 0.00 72 1017.5
20260901193056 84 255 2.0 6.0 0.00 0.00 0.00 73 1017.5
20260901192017 84 249 3.0 7.0 0.00 0.00 0.00 71 1017.6
20260901191016 84 188 2.0 5.0 0.00 0.00 0.00 75 1017.9
20260901190016 83 233 2.0 7.0 0.00 0.00 0.00 75 1017.8
20260901185016 83 231 0.0 3.0 0.00 0.00 0.00 77 1017.9
20260901184016 82 207 1.0 4.0 0.00 0.00 0.00 78 1017.9
20260901183016 82 196 1.0 3.0 0.00 0.00 0.00 77 1017.7
20260901182117 82 0.0 0.0 0.00 0.00 0.00 78 1017.9
20260901181516 81 266 1.0 5.0 0.00 0.00 0.00 78 1018.1
20260901180516 81 251 2.0 7.0 0.00 0.00 0.00 78 1018.3
20260901175516 81 170 1.0 5.0 0.00 0.00 0.00 77 1018.4
20260901174517 82 184 1.0 3.0 0.00 0.00 0.00 77 1018.5
20260901173516 82 246 1.0 6.0 0.00 0.00 0.00 77 1018.5
20260901172517 81 209 2.0 6.0 0.00 0.00 0.00 79 1018.5
20260901171516 81 252 1.0 4.0 0.00 0.00 0.00 78 1018.6
20260901170516 81 232 1.0 5.0 0.00 0.00 0.00 79 1018.7
20260901165015 79 259 1.0 5.0 0.00 0.00 0.00 83 1018.8
20260901164015 78 243 1.0 6.0 0.00 0.00 0.00 82 1018.8
20260901163015 79 280 1.0 3.0 0.00 0.00 0.00 81 1018.8
20260901162035 79 244 1.0 6.0 0.00 0.00 0.00 79 1018.9
20260901161015 80 241 2.0 8.0 0.00 0.00 0.00 77 1018.8
20260901160015 80 297 2.0 6.0 0.00 0.00 0.00 76 1018.9
20260901155035 81 258 3.0 9.0 0.00 0.00 0.00 76 1018.8
20260901154015 81 247 2.0 7.0 0.00 0.00 0.00 78 1018.9
20260901153015 82 261 3.0 10.0 0.00 0.00 0.00 76 1018.8
20260901152056 82 266 3.0 9.0 0.00 0.00 0.00 73 1018.6
20260901151015 83 288 3.0 10.0 0.00 0.00 0.00 72 1018.7
20260901150016 84 247 2.0 12.0 0.00 0.00 0.00 73 1018.4
20260901145016 83 267 3.0 7.0 0.00 0.00 0.00 76 1018.6
20260901144016 83 267 2.0 7.0 0.00 0.00 0.00 77 1018.4
20260901143016 82 243 2.0 9.0 0.00 0.00 0.00 78 1018.4
20260901142016 82 224 3.0 8.0 0.00 0.00 0.00 79 1018.1
20260901141017 80 272 2.0 4.0 0.00 0.00 0.00 82 1018.0
20260901140136 80 238 1.0 4.0 0.00 0.00 0.00 82 1017.9
20260901135016 80 253 1.0 7.0 0.00 0.00 0.00 81 1018.0
20260901134016 80 237 1.0 5.0 0.00 0.00 0.00 82 1018.2
20260901133016 79 257 1.0 5.0 0.00 0.00 0.00 83 1018.1
20260901132036 78 198 1.0 5.0 0.00 0.00 0.00 85 1018.2
20260901131016 78 189 1.0 4.0 0.00 0.00 0.00 86 1018.3
20260901130036 78 202 2.0 7.0 0.00 0.00 0.00 86 1018.4
20260901125016 77 232 1.0 3.0 0.00 0.00 0.00 87 1018.4
20260901124016 76 238 1.0 4.0 0.00 0.00 0.00 87 1018.5
20260901123016 76 213 2.0 7.0 0.00 0.00 0.00 88 1018.5
20260901122016 75 257 1.0 3.0 0.00 0.00 0.00 89 1018.5
20260901121056 75 250 1.0 5.0 0.00 0.00 0.00 89 1018.4
20260901120016 75 256 0.0 4.0 0.00 0.00 0.00 89 1018.4
20260901115016 75 198 1.0 3.0 0.00 0.00 0.00 89 1018.3
20260901114016 74 0.0 0.0 0.00 0.00 0.00 90 1018.2
20260901113016 74 0.0 0.0 0.00 0.00 0.00 90 1018.1
20260901112016 74 0.0 0.0 0.00 0.00 0.00 90 1018.0
20260901111016 74 0.0 0.0 0.00 0.00 0.00 91 1018.0
20260901110118 74 0.0 0.0 0.00 0.00 0.00 91 1018.0
20260901105516 74 0.0 0.0 0.00 0.00 0.00 91 1018.0
20260901104536 74 0.0 0.0 0.00 0.00 0.00 91 1018.0
20260901103016 73 0.0 0.0 0.00 0.00 0.00 91 1017.8
20260901102015 73 0.0 0.0 0.00 0.00 0.00 91 1017.8
20260901101015 73 0.0 0.0 0.00 0.00 0.00 92 1017.9
20260901100015 73 0.0 0.0 0.00 0.00 0.00 92 1017.7
20260901095015 73 0.0 0.0 0.00 0.00 0.00 92 1017.7
20260901094015 72 0.0 0.0 0.00 0.00 0.00 92 1017.7
20260901093015 72 0.0 0.0 0.00 0.00 0.00 92 1017.7
20260901092035 72 0.0 0.0 0.00 0.00 0.00 92 1017.9
20260901091035 72 0.0 0.0 0.00 0.00 0.00 92 1017.9
20260901090015 72 0.0 0.0 0.00 0.00 0.00 92 1018.0
20260901085036 72 0.0 0.0 0.00 0.00 0.00 92 1017.9
20260901084015 72 0.0 0.0 0.00 0.00 0.00 92 1017.9
20260901083015 72 0.0 0.0 0.00 0.00 0.00 92 1017.9
20260901082016 72 0.0 0.0 0.00 0.00 0.00 92 1017.9
20260901081014 72 0.0 0.0 0.00 0.00 0.00 92 1018.0
20260901080015 72 0.0 0.0 0.00 0.00 0.00 92 1017.9
20260901075015 72 0.0 0.0 0.00 0.00 0.00 92 1017.9
20260901074015 72 0.0 0.0 0.00 0.00 0.00 91 1017.9
20260901073017 72 0.0 0.0 0.00 0.00 0.00 91 1017.9
20260901072017 72 0.0 0.0 0.00 0.00 0.00 91 1017.9
20260901071017 72 0.0 0.0 0.00 0.00 0.00 92 1017.9
20260901070017 72 0.0 0.0 0.00 0.00 0.00 91 1017.9
20260901065017 72 0.0 0.0 0.00 0.00 0.00 92 1018.0
20260901064037 72 0.0 0.0 0.00 0.00 0.00 91 1018.1
20260901063017 72 0.0 0.0 0.00 0.00 0.00 91 1018.2
20260901062016 72 0.0 0.0 0.00 0.00 0.00 91 1018.2
20260901061037 72 0.0 0.0 0.00 0.00 0.00 91 1018.2
20260901060017 72 0.0 0.0 0.00 0.00 0.00 91 1018.3
20260901055017 72 0.0 0.0 0.00 0.00 0.00 91 1018.5
20260901054016 72 0.0 0.0 0.00 0.00 0.00 91 1018.4
20260901053017 72 0.0 0.0 0.00 0.00 0.00 91 1018.6
20260901052017 72 0.0 0.0 0.00 0.00 0.00 91 1018.7
20260901051017 72 0.0 0.0 0.00 0.00 0.00 91 1018.7
20260901050017 73 0.0 0.0 0.00 0.00 0.00 91 1018.7
20260901045017 72 0.0 0.0 0.00 0.00 0.00 91 1018.9
20260901044017 73 0.0 0.0 0.00 0.00 0.00 90 1018.8
20260901043016 73 0.0 0.0 0.00 0.00 0.00 90 1018.7
20260901042016 73 0.0 0.0 0.00 0.00 0.00 91 1018.6
20260901040516 73 0.0 0.0 0.00 0.00 0.00 90 1018.2
20260901035516 73 0.0 0.0 0.00 0.00 0.00 90 1017.8
20260901034536 74 0.0 0.0 0.00 0.00 0.00 90 1017.6
20260901033516 74 0.0 0.0 0.00 0.00 0.00 90 1017.5
20260901032516 75 0.0 0.0 0.00 0.00 0.00 90 1017.6
20260901031516 75 0.0 0.0 0.00 0.00 0.00 89 1017.6
20260901030016 75 0.0 0.0 0.00 0.00 0.00 89 1017.7
20260901025015 76 0.0 0.0 0.00 0.00 0.00 88 1018.4
20260901024015 76 0.0 0.0 0.00 0.00 0.00 88 1017.8
20260901023015 76 0.0 0.0 0.00 0.00 0.00 88 1017.7
20260901022138 76 0.0 0.0 0.00 0.00 0.00 87 1017.6
20260901021015 77 0.0 0.0 0.00 0.00 0.00 86 1017.4
20260901020015 75 0.0 0.0 0.00 0.00 0.00 89 1017.2
20260901015056 75 0.0 0.0 0.00 0.00 0.00 90 1017.8
20260901014015 76 0.0 0.0 0.00 0.00 0.00 90 1018.0
20260901013015 76 0.0 0.0 0.00 0.00 0.00 90 1018.3
20260901012017 76 0.0 0.0 0.00 0.00 0.00 90 1018.3
20260901011018 76 0.0 0.0 0.00 0.00 0.00 89 1018.4
20260901010017 76 0.0 0.0 0.00 0.00 0.00 89 1018.3
20260901005017 77 0.0 0.0 0.00 0.00 0.00 89 1018.3
20260901004017 77 0.0 0.0 0.00 0.00 0.00 89 1018.2
20260901003017 77 0.0 0.0 0.00 0.00 0.00 88 1018.2
20260901002017 78 0.0 0.0 0.00 0.00 0.00 88 1018.2
20260901001017 78 0.0 0.0 0.00 0.00 0.00 87 1018.2